When you browse on this site, cookies collect data to enhance your experience and personalize the content and advertising you see.
Visit our Privacy Policy to learn more. By continuing to use the site, you agree to this use of cookies and data.
  • In Hungary
  • List of Countries
  • For 7 days
  • Water Temperature
  • Weather Map
  • News
  • Weather Widgets
  • user-avatar
    Login

    Hourly Weather Terebyn

    Today, 29 January, Wednesday

    Time Temperature Precipitation Wind Pressure Humidity
    00:00 -2°C° 0 mm 3 mps 734 mmHg 90%
    01:00 -2°C° 0 mm 3 mps 734 mmHg 92%
    02:00 -2°C° 0 mm 2 mps 734 mmHg 95%
    03:00 -2°C° 0 mm 2 mps 734 mmHg 94%
    04:00 -2°C° 0 mm 3 mps 733 mmHg 94%
    05:00 -2°C° 0 mm 3 mps 733 mmHg 94%
    06:00 -2°C° 0 mm 3 mps 733 mmHg 92%
    07:00 -2°C° 0 mm 3 mps 733 mmHg 91%
    08:00 -2°C° 0 mm 3 mps 733 mmHg 90%
    09:00 -2°C° 0 mm 3 mps 733 mmHg 88%
    10:00 -2°C° 0 mm 4 mps 733 mmHg 86%
    11:00 -2°C° 0 mm 4 mps 732 mmHg 84%
    12:00 -2°C° 0 mm 4 mps 732 mmHg 88%
    13:00 -1°C° 0 mm 3 mps 732 mmHg 92%
    14:00 0°C° 0 mm 3 mps 732 mmHg 96%
    15:00 -1°C° 0 mm 4 mps 731 mmHg 96%
    16:00 -1°C° 0 mm 4 mps 731 mmHg 96%
    17:00 -1°C° 0 mm 4 mps 730 mmHg 97%
    18:00 -1°C° 0 mm 4 mps 730 mmHg 96%
    19:00 -1°C° 0 mm 4 mps 730 mmHg 96%
    20:00 -1°C° 0 mm 4 mps 730 mmHg 96%
    21:00 -1°C° 0.1 mm 4 mps 729 mmHg 96%
    22:00 -1°C° 0.1 mm 4 mps 728 mmHg 97%
    23:00 -1°C° 0.1 mm 4 mps 728 mmHg 97%

    Tomorrow, 30 January, Thursday

    Time Temperature Precipitation Wind Pressure Humidity
    00:00 -1°C° 0.1 mm 4 mps 727 mmHg 97%
    01:00 -1°C° 0.1 mm 5 mps 727 mmHg 96%
    02:00 -1°C° 0.1 mm 5 mps 726 mmHg 96%
    03:00 -1°C° 0.2 mm 5 mps 726 mmHg 96%
    04:00 -1°C° 0.2 mm 5 mps 725 mmHg 96%
    05:00 -2°C° 0.2 mm 6 mps 724 mmHg 96%
    06:00 -2°C° 0.7 mm 6 mps 724 mmHg 96%
    07:00 -2°C° 0.7 mm 6 mps 724 mmHg 96%
    08:00 -2°C° 0.7 mm 6 mps 723 mmHg 97%
    09:00 -1°C° 0.6 mm 5 mps 723 mmHg 96%
    10:00 -1°C° 0.6 mm 5 mps 723 mmHg 96%
    11:00 -2°C° 0.6 mm 4 mps 723 mmHg 96%
    12:00 -2°C° 0.2 mm 4 mps 723 mmHg 93%
    13:00 -1°C° 0.2 mm 4 mps 723 mmHg 89%
    14:00 0°C° 0.2 mm 3 mps 723 mmHg 86%
    15:00 -1°C° 0 mm 3 mps 723 mmHg 89%
    16:00 -1°C° 0 mm 3 mps 723 mmHg 91%
    17:00 -2°C° 0 mm 3 mps 723 mmHg 94%
    18:00 -2°C° 0 mm 3 mps 724 mmHg 93%
    19:00 -2°C° 0 mm 3 mps 725 mmHg 92%
    20:00 -2°C° 0 mm 3 mps 725 mmHg 92%
    21:00 -2°C° 0 mm 3 mps 725 mmHg 91%
    22:00 -2°C° 0 mm 3 mps 726 mmHg 91%
    23:00 -2°C° 0 mm 3 mps 726 mmHg 90%

    Day after tomorrow, 31 January, Friday

    Time Temperature Precipitation Wind Pressure Humidity
    00:00 -2°C° 0 mm 3 mps 726 mmHg 89%
    01:00 -2°C° 0 mm 3 mps 727 mmHg 89%
    02:00 -2°C° 0 mm 3 mps 727 mmHg 88%
    03:00 -2°C° 0 mm 2 mps 727 mmHg 89%
    04:00 -2°C° 0 mm 2 mps 728 mmHg 89%
    05:00 -2°C° 0 mm 2 mps 728 mmHg 90%
    06:00 -2°C° 0.1 mm 2 mps 728 mmHg 92%
    07:00 -2°C° 0.1 mm 2 mps 728 mmHg 93%
    08:00 -2°C° 0.1 mm 2 mps 729 mmHg 94%
    09:00 -2°C° 0.1 mm 2 mps 729 mmHg 93%
    10:00 -2°C° 0.1 mm 2 mps 729 mmHg 91%
    11:00 -1°C° 0.1 mm 2 mps 729 mmHg 90%
    12:00 -1°C° 0.1 mm 2 mps 729 mmHg 89%
    13:00 -1°C° 0.1 mm 2 mps 729 mmHg 89%
    14:00 -1°C° 0.1 mm 2 mps 729 mmHg 88%
    15:00 -1°C° 0 mm 2 mps 729 mmHg 89%
    16:00 -1°C° 0 mm 2 mps 729 mmHg 91%
    17:00 0°C° 0 mm 1 mps 730 mmHg 92%
    18:00 0°C° 0 mm 1 mps 730 mmHg 91%
    19:00 0°C° 0 mm 1 mps 731 mmHg 90%
    20:00 0°C° 0 mm 1 mps 731 mmHg 89%
    21:00 0°C° 0 mm 1 mps 731 mmHg 89%
    22:00 0°C° 0 mm 1 mps 731 mmHg 88%
    23:00 0°C° 0 mm 1 mps 731 mmHg 88%

    1 February, Saturday

    Time Temperature Precipitation Wind Pressure Humidity
    00:00 0°C° 0 mm 1 mps 732 mmHg 88%
    01:00 -1°C° 0 mm 0 mps 732 mmHg 89%
    02:00 -1°C° 0 mm 0 mps 733 mmHg 89%
    03:00 -1°C° 0 mm 0 mps 733 mmHg 90%
    04:00 0°C° 0 mm 1 mps 733 mmHg 90%
    05:00 0°C° 0 mm 1 mps 734 mmHg 91%
    06:00 -1°C° 0 mm 0 mps 734 mmHg 91%
    07:00 -1°C° 0 mm 0 mps 734 mmHg 91%
    08:00 -1°C° 0 mm 0 mps 735 mmHg 91%
    09:00 -1°C° 0 mm 0 mps 735 mmHg 87%
    10:00 0°C° 0 mm 1 mps 735 mmHg 84%
    11:00 +1°C° 0 mm 1 mps 735 mmHg 81%
    12:00 +1°C° 0 mm 1 mps 735 mmHg 79%
    13:00 -1°C° 0 mm 2 mps 735 mmHg 76%
    14:00 +1°C° 0 mm 2 mps 735 mmHg 74%
    15:00 -1°C° 0 mm 2 mps 735 mmHg 78%
    16:00 -2°C° 0 mm 2 mps 735 mmHg 82%
    17:00 -3°C° 0 mm 2 mps 735 mmHg 86%
    18:00 -2°C° 0 mm 3 mps 735 mmHg 88%
    19:00 -2°C° 0 mm 3 mps 735 mmHg 90%
    20:00 -3°C° 0 mm 4 mps 734 mmHg 91%
    21:00 -3°C° 0 mm 4 mps 734 mmHg 91%
    22:00 -3°C° 0 mm 4 mps 734 mmHg 91%
    23:00 -4°C° 0 mm 5 mps 733 mmHg 91%

    2 February, Sunday

    Time Temperature Precipitation Wind Pressure Humidity
    00:00 -4°C° 0.1 mm 5 mps 733 mmHg 92%
    01:00 -2°C° 0.1 mm 5 mps 732 mmHg 94%
    02:00 -2°C° 0.1 mm 4 mps 732 mmHg 95%
    03:00 -1°C° 0.2 mm 5 mps 732 mmHg 95%
    04:00 -1°C° 0.2 mm 5 mps 731 mmHg 95%
    05:00 0°C° 0.2 mm 5 mps 730 mmHg 95%
    06:00 0°C° 0.2 mm 5 mps 730 mmHg 95%
    07:00 0°C° 0.2 mm 5 mps 730 mmHg 96%
    08:00 -1°C° 0.2 mm 6 mps 729 mmHg 96%
    09:00 0°C° 0.2 mm 5 mps 729 mmHg 96%
    10:00 0°C° 0.2 mm 5 mps 729 mmHg 96%
    11:00 0°C° 0.2 mm 5 mps 729 mmHg 96%
    12:00 +1°C° 0.6 mm 5 mps 729 mmHg 96%
    13:00 +1°C° 0.6 mm 4 mps 729 mmHg 96%
    14:00 +1°C° 0.6 mm 4 mps 729 mmHg 96%
    15:00 +1°C° 0.1 mm 4 mps 729 mmHg 95%
    16:00 0°C° 0.1 mm 4 mps 729 mmHg 93%
    17:00 +1°C° 0.1 mm 3 mps 729 mmHg 92%
    18:00 0°C° 0 mm 4 mps 730 mmHg 91%
    19:00 -1°C° 0 mm 4 mps 730 mmHg 91%
    20:00 -1°C° 0 mm 4 mps 730 mmHg 90%
    21:00 -1°C° 0 mm 4 mps 730 mmHg 89%
    22:00 -1°C° 0 mm 4 mps 730 mmHg 89%
    23:00 -1°C° 0 mm 4 mps 730 mmHg 88%

    3 February, Monday

    Time Temperature Precipitation Wind Pressure Humidity
    00:00 -1°C° 0.1 mm 4 mps 730 mmHg 91%
    01:00 -1°C° 0.1 mm 5 mps 730 mmHg 94%
    02:00 -1°C° 0.1 mm 5 mps 730 mmHg 97%
    03:00 -1°C° 0.1 mm 5 mps 729 mmHg 96%
    04:00 -2°C° 0.1 mm 5 mps 729 mmHg 95%
    05:00 -2°C° 0.1 mm 5 mps 729 mmHg 94%
    06:00 -2°C° 0.1 mm 5 mps 729 mmHg 92%
    07:00 -2°C° 0.1 mm 4 mps 729 mmHg 91%
    08:00 -2°C° 0.1 mm 4 mps 729 mmHg 89%
    09:00 -1°C° 0 mm 4 mps 730 mmHg 87%
    10:00 -1°C° 0 mm 5 mps 730 mmHg 85%
    11:00 -1°C° 0 mm 5 mps 730 mmHg 82%
    12:00 -1°C° 0 mm 5 mps 730 mmHg 83%
    13:00 -1°C° 0 mm 5 mps 730 mmHg 84%
    14:00 -1°C° 0 mm 5 mps 730 mmHg 85%
    15:00 -1°C° 0 mm 4 mps 731 mmHg 84%
    16:00 -1°C° 0 mm 4 mps 731 mmHg 83%
    17:00 -1°C° 0 mm 4 mps 731 mmHg 82%
    18:00 -1°C° 0 mm 4 mps 732 mmHg 81%
    19:00 -1°C° 0 mm 4 mps 732 mmHg 80%
    20:00 -2°C° 0 mm 4 mps 732 mmHg 80%
    21:00 -2°C° 0 mm 4 mps 733 mmHg 81%
    22:00 -2°C° 0 mm 4 mps 733 mmHg 82%
    23:00 -1°C° 0 mm 3 mps 733 mmHg 83%
    Show more